Location: McFarlands Corners
(41.4117°N, 81.3382°W)
Time: 02:54:00
(UTC+00:00)

Tiros 1 - Pass Details

Date: 24 February 2026
Orbit: 618 x 649 km, 48.4° (Epoch: 13 March)

Event Time Altitude Azimuth Distance (km) Brightness Sun altitude
Rises 10:14:50 0° 202° (SSW) 2,927 - -21.8°
Exits shadow 10:17:30 10° 188° (S) 2,029 9.5 -21.4°
Reaches altitude 10° 10:17:32 10° 188° (S) 2,017 9.5 -21.3°
Maximum altitude 10:21:11 23° 136° (SE) 1,343 9.2 -20.7°
Drops below altitude 10° 10:24:50 10° 84° (E) 2,009 10.9 -20.0°
Sets 10:27:30 0° 70° (ENE) 2,914 11.9 -19.5°
